GW0265 Weather Reports


Display with metric or nautical units.
time (UTC)temp
F
wind
direction
speed
MPH
gust
MPH
rain 1hr
in
rain 24hr
in
rain mn
in
humidity
%
barometer
mb
20260503212031 82 31 5.0 11.0 0.00 0.00 0.00 31 1012.1
20260503211028 82 51 5.0 12.0 0.00 0.00 0.00 30 1012.3
20260503210037 82 31 7.0 12.0 0.00 0.00 0.00 32 1012.5
20260503205030 81 57 7.0 14.0 0.00 0.00 0.00 30 1012.6
20260503204030 82 18 6.0 14.0 0.00 0.00 0.00 31 1012.7
20260503203002 82 60 4.0 10.0 0.00 0.00 0.00 29 1012.8
20260503200809 82 115 2.0 7.0 0.00 0.00 0.00 31 1012.8
20260503195812 82 122 1.0 10.0 0.00 0.00 0.00 33 1013.1
20260503193659 82 343 1.0 8.0 0.00 0.00 0.00 31 1013.4
20260503191512 80 29 4.0 11.0 0.00 0.00 0.00 34 1013.5
20260503190515 80 65 1.0 8.0 0.00 0.00 0.00 35 1013.6
20260503184401 80 75 0.0 7.0 0.00 0.00 0.00 39 1013.6
20260503183352 79 300 0.0 7.0 0.00 0.00 0.00 43 1013.8
20260503182324 77 40 2.0 7.0 0.00 0.00 0.00 46 1013.9
20260503181251 77 34 0.0 3.0 0.00 0.00 0.00 43 1014.0
20260503180251 77 61 0.0 3.0 0.00 0.00 0.00 45 1014.1
20260503175230 76 14 0.0 2.0 0.00 0.00 0.00 47 1014.2
20260503174232 75 39 0.0 2.0 0.00 0.00 0.00 46 1014.3
20260503150640 58 51 0.0 0.0 0.00 0.00 0.00 78 1015.0
20260503131217 47 70 0.0 0.0 0.00 0.00 0.00 88 1014.8
20260503130148 46 260 0.0 2.0 0.00 0.00 0.00 90 1014.7
20260503110235 48 219 0.0 1.0 0.00 0.00 0.00 90 1014.9
20260503081537 52 63 0.0 0.0 0.00 0.00 0.00 84 1014.7
20260503080601 52 61 0.0 0.0 0.00 0.00 0.00 83 1014.8
20260503072451 53 214 0.0 0.0 0.00 0.00 0.00 84 1014.7
20260503071440 53 217 0.0 0.0 0.00 0.00 0.00 83 1014.8
20260503070428 54 217 0.0 1.0 0.00 0.00 0.00 81 1014.7
20260503060339 58 189 0.0 1.0 0.00 0.00 0.00 75 1014.4
20260503054413 57 205 0.0 0.0 0.00 0.00 0.00 78 1014.4
20260503053405 58 214 0.0 0.0 0.00 0.00 0.00 77 1014.3
20260503050213 60 250 0.0 0.0 0.00 0.00 0.00 74 1014.3
20260503045204 60 208 0.0 0.0 0.00 0.00 0.00 73 1014.2
20260503043008 62 165 0.0 0.0 0.00 0.00 0.00 71 1014.3
20260503042010 61 225 0.0 2.0 0.00 0.00 0.00 72 1014.1
20260503040955 62 204 0.0 0.0 0.00 0.00 0.00 75 1014.0
20260503035926 63 212 0.0 1.0 0.00 0.00 0.00 71 1013.9
20260503034949 64 219 0.0 0.0 0.00 0.00 0.00 71 1013.8
20260503033942 64 7 0.0 0.0 0.00 0.00 0.00 69 1013.6
20260503032915 65 195 0.0 0.0 0.00 0.00 0.00 69 1013.4
20260503031911 66 203 0.0 1.0 0.00 0.00 0.00 65 1013.2
20260503030917 67 210 0.0 0.0 0.00 0.00 0.00 67 1013.1
20260503025849 68 209 0.0 0.0 0.00 0.00 0.00 66 1012.8
20260503024854 68 226 0.0 0.0 0.00 0.00 0.00 65 1012.7
20260503023915 69 226 0.0 0.0 0.00 0.00 0.00 63 1012.6
20260503022920 70 226 0.0 0.0 0.00 0.00 0.00 63 1012.5
20260503021930 70 228 0.0 0.0 0.00 0.00 0.00 60 1012.5
20260503015755 73 212 0.0 0.0 0.00 0.00 0.00 60 1012.4
20260503014801 75 212 0.0 0.0 0.00 0.00 0.00 56 1012.4
20260503013822 76 143 0.0 0.0 0.00 0.00 0.00 48 1012.4
20260503012757 76 143 0.0 0.0 0.00 0.00 0.00 43 1012.4
20260503011753 77 169 0.0 0.0 0.00 0.00 0.00 44 1012.4
20260503010739 77 58 0.0 2.0 0.00 0.00 0.00 38 1012.4
20260503005740 78 147 0.0 0.0 0.00 0.00 0.00 40 1012.4
20260503004717 78 121 0.0 0.0 0.00 0.00 0.00 42 1012.4
20260503003645 77 128 0.0 2.0 0.00 0.00 0.00 38 1012.5
20260503002655 77 127 0.0 0.0 0.00 0.00 0.00 39 1012.4
20260503001622 77 24 0.0 2.0 0.00 0.00 0.00 40 1012.5
20260503000551 77 132 0.0 3.0 0.00 0.00 0.00 39 1012.5
20260502235529 77 30 0.0 4.0 0.00 0.00 0.00 37 1012.5
20260502232230 77 41 4.0 11.0 0.00 0.00 0.00 37 1012.8
20260502230031 78 11 4.0 10.0 0.00 0.00 0.00 37 1013.2
20260502223849 79 34 2.0 11.0 0.00 0.00 0.00 39 1013.3
20260502222830 79 121 1.0 10.0 0.00 0.00 0.00 35 1013.3
20260502221835 78 350 1.0 10.0 0.00 0.00 0.00 37 1013.5
20260502220811 78 40 0.0 5.0 0.00 0.00 0.00 40 1013.6
20260502215754 78 158 0.0 4.0 0.00 0.00 0.00 43 1013.7
20260502214734 77 29 1.0 5.0 0.00 0.00 0.00 48 1013.8
20260502213710 77 48 0.0 4.0 0.00 0.00 0.00 49 1013.9
20260502212706 76 164 1.0 0.0 0.00 0.00 0.00 47 1014.1